| time (UTC) | temp F | wind direction | speed MPH | gust MPH | rain 1hr in | rain 24hr in | rain mn in | humidity % | barometer mb |
| 20260506234535 | 68 | 229 | 4.0 | 13.0 | 0.00 | 0.00 | 0.00 | 51 | 1008.1 |
| 20260506234035 | 68 | 248 | 3.0 | 12.0 | 0.00 | 0.00 | 0.00 | 54 | 1008.1 |
| 20260506233029 | 68 | 235 | 3.0 | 11.0 | 0.00 | 0.00 | 0.00 | 52 | 1008.1 |
| 20260506232520 | 69 | 194 | 2.0 | 6.0 | 0.00 | 0.00 | 0.00 | 52 | 1008.1 |
| 20260506232014 | 69 | 200 | 2.0 | 6.0 | 0.00 | 0.00 | 0.00 | 51 | 1008.1 |
| 20260506231009 | 69 | 182 | 2.0 | 10.0 | 0.00 | 0.00 | 0.00 | 50 | 1008.1 |
| 20260506230507 | 70 | 191 | 1.0 | 10.0 | 0.00 | 0.00 | 0.00 | 48 | 1008.1 |
| 20260506230005 | 70 | 313 | 1.0 | 6.0 | 0.00 | 0.00 | 0.00 | 51 | 1008.3 |
| 20260506225459 | 69 | 207 | 2.0 | 5.0 | 0.00 | 0.00 | 0.00 | 50 | 1008.3 |
| 20260506224449 | 70 | 255 | 3.0 | 13.0 | 0.00 | 0.00 | 0.00 | 48 | 1008.6 |
| 20260506223950 | 70 | 226 | 2.0 | 11.0 | 0.00 | 0.00 | 0.00 | 49 | 1008.6 |
| 20260506223449 | 69 | 176 | 3.0 | 14.0 | 0.00 | 0.00 | 0.00 | 53 | 1008.7 |
| 20260506222951 | 69 | 225 | 3.0 | 14.0 | 0.00 | 0.00 | 0.00 | 52 | 1008.7 |
| 20260506222449 | 69 | 188 | 4.0 | 13.0 | 0.00 | 0.00 | 0.00 | 52 | 1008.8 |
| 20260506221949 | 69 | 191 | 4.0 | 13.0 | 0.00 | 0.00 | 0.00 | 51 | 1008.7 |
| 20260506220947 | 70 | 196 | 3.0 | 13.0 | 0.00 | 0.00 | 0.00 | 53 | 1008.6 |
| 20260506220439 | 70 | 230 | 3.0 | 13.0 | 0.00 | 0.00 | 0.00 | 52 | 1008.7 |
| 20260506215941 | 70 | 234 | 4.0 | 12.0 | 0.00 | 0.00 | 0.00 | 53 | 1008.9 |
| 20260506215435 | 70 | 216 | 4.0 | 12.0 | 0.00 | 0.00 | 0.00 | 51 | 1008.9 |
| 20260506214936 | 71 | 176 | 3.0 | 11.0 | 0.00 | 0.00 | 0.00 | 51 | 1009.0 |
| 20260506214434 | 70 | 201 | 3.0 | 10.0 | 0.00 | 0.00 | 0.00 | 50 | 1009.0 |
| 20260506213933 | 71 | 190 | 2.0 | 10.0 | 0.00 | 0.00 | 0.00 | 49 | 1008.9 |
| 20260506213432 | 71 | 220 | 1.0 | 6.0 | 0.00 | 0.00 | 0.00 | 48 | 1009.0 |
| 20260506212936 | 71 | 215 | 2.0 | 6.0 | 0.00 | 0.00 | 0.00 | 50 | 1009.2 |
| 20260506212434 | 71 | 222 | 3.0 | 7.0 | 0.00 | 0.00 | 0.00 | 48 | 1009.2 |
| 20260506211926 | 71 | 200 | 3.0 | 8.0 | 0.00 | 0.00 | 0.00 | 48 | 1009.1 |
| 20260506211423 | 71 | 209 | 3.0 | 9.0 | 0.00 | 0.00 | 0.00 | 48 | 1009.1 |
| 20260506210407 | 71 | 162 | 3.0 | 10.0 | 0.00 | 0.00 | 0.00 | 47 | 1009.3 |
| 20260506205904 | 70 | 201 | 3.0 | 9.0 | 0.00 | 0.00 | 0.00 | 49 | 1009.2 |
| 20260506205405 | 70 | 244 | 4.0 | 10.0 | 0.00 | 0.00 | 0.00 | 51 | 1009.2 |
| 20260506204907 | 70 | 209 | 5.0 | 10.0 | 0.00 | 0.00 | 0.00 | 50 | 1009.1 |
| 20260506204402 | 70 | 180 | 4.0 | 12.0 | 0.00 | 0.00 | 0.00 | 48 | 1009.0 |
| 20260506203401 | 70 | 346 | 4.0 | 16.0 | 0.00 | 0.00 | 0.00 | 51 | 1009.3 |
| 20260506202900 | 70 | 186 | 5.0 | 16.0 | 0.00 | 0.00 | 0.00 | 49 | 1009.2 |
| 20260506202356 | 70 | 327 | 5.0 | 11.0 | 0.00 | 0.00 | 0.00 | 52 | 1009.3 |
| 20260506201854 | 69 | 333 | 6.0 | 13.0 | 0.00 | 0.00 | 0.00 | 50 | 1009.3 |
| 20260506200854 | 70 | 190 | 5.0 | 18.0 | 0.00 | 0.00 | 0.00 | 48 | 1009.5 |
| 20260506195838 | 69 | 207 | 4.0 | 13.0 | 0.00 | 0.00 | 0.00 | 53 | 1009.7 |
| 20260506195320 | 69 | 224 | 4.0 | 18.0 | 0.00 | 0.00 | 0.00 | 48 | 1009.5 |
| 20260506194811 | 69 | 198 | 3.0 | 18.0 | 0.00 | 0.00 | 0.00 | 50 | 1009.7 |
| 20260506194305 | 69 | 261 | 3.0 | 13.0 | 0.00 | 0.00 | 0.00 | 52 | 1009.8 |
| 20260506193755 | 68 | 265 | 4.0 | 13.0 | 0.00 | 0.00 | 0.00 | 53 | 1009.7 |
| 20260506193251 | 69 | 176 | 4.0 | 13.0 | 0.00 | 0.00 | 0.00 | 52 | 1009.7 |
| 20260506192742 | 69 | 220 | 4.0 | 14.0 | 0.00 | 0.00 | 0.00 | 54 | 1009.6 |
| 20260506191724 | 68 | 201 | 2.0 | 10.0 | 0.00 | 0.00 | 0.00 | 52 | 1009.7 |
| 20260506190714 | 68 | 175 | 4.0 | 15.0 | 0.00 | 0.00 | 0.00 | 53 | 1009.7 |
| 20260506190214 | 68 | 167 | 2.0 | 10.0 | 0.00 | 0.00 | 0.00 | 53 | 1009.7 |
| 20260506185210 | 67 | 198 | 2.0 | 13.0 | 0.00 | 0.00 | 0.00 | 58 | 1009.8 |
| 20260506184711 | 66 | 231 | 4.0 | 13.0 | 0.00 | 0.00 | 0.00 | 59 | 1009.9 |
| 20260506184210 | 66 | 192 | 5.0 | 15.0 | 0.00 | 0.00 | 0.00 | 57 | 1009.9 |
| 20260506183708 | 66 | 178 | 6.0 | 15.0 | 0.00 | 0.00 | 0.00 | 57 | 1010.0 |
| 20260506183208 | 66 | 206 | 6.0 | 15.0 | 0.00 | 0.00 | 0.00 | 55 | 1010.0 |
| 20260506182207 | 66 | 205 | 4.0 | 11.0 | 0.00 | 0.00 | 0.00 | 55 | 1010.0 |
| 20260506181706 | 66 | 194 | 4.0 | 11.0 | 0.00 | 0.00 | 0.00 | 57 | 1010.0 |
| 20260506181211 | 66 | 225 | 4.0 | 12.0 | 0.00 | 0.00 | 0.00 | 60 | 1009.9 |
| 20260506180158 | 65 | 235 | 4.0 | 11.0 | 0.00 | 0.00 | 0.00 | 57 | 1010.0 |
| 20260506175649 | 65 | 194 | 5.0 | 11.0 | 0.00 | 0.00 | 0.00 | 57 | 1009.9 |
| 20260506175141 | 64 | 211 | 5.0 | 13.0 | 0.00 | 0.00 | 0.00 | 55 | 1009.9 |
| 20260506174629 | 65 | 194 | 4.0 | 13.0 | 0.00 | 0.00 | 0.00 | 54 | 1009.9 |
| 20260506174127 | 64 | 173 | 2.0 | 9.0 | 0.00 | 0.00 | 0.00 | 56 | 1009.9 |
| 20260506173614 | 64 | 219 | 4.0 | 10.0 | 0.00 | 0.00 | 0.00 | 57 | 1009.8 |
| 20260506172601 | 63 | 192 | 4.0 | 12.0 | 0.00 | 0.00 | 0.00 | 56 | 1010.2 |
| 20260506172101 | 62 | 171 | 4.0 | 12.0 | 0.00 | 0.00 | 0.00 | 55 | 1010.2 |
| 20260506171058 | 62 | 222 | 3.0 | 8.0 | 0.00 | 0.00 | 0.00 | 56 | 1010.2 |
| 20260506170105 | 62 | 172 | 2.0 | 7.0 | 0.00 | 0.00 | 0.00 | 55 | 1010.0 |
| 20260506165551 | 61 | 237 | 3.0 | 9.0 | 0.00 | 0.00 | 0.00 | 56 | 1010.0 |
| 20260506164044 | 61 | 246 | 2.0 | 7.0 | 0.00 | 0.00 | 0.00 | 56 | 1009.9 |
| 20260506163018 | 61 | 133 | 2.0 | 10.0 | 0.00 | 0.00 | 0.00 | 55 | 1009.9 |
| 20260506162518 | 60 | 192 | 2.0 | 10.0 | 0.00 | 0.00 | 0.00 | 54 | 1010.0 |
| 20260506162030 | 60 | 188 | 2.0 | 7.0 | 0.00 | 0.00 | 0.00 | 55 | 1009.9 |
| 20260506161527 | 60 | 186 | 2.0 | 7.0 | 0.00 | 0.00 | 0.00 | 54 | 1009.9 |
| 20260506161017 | 60 | 180 | 2.0 | 9.0 | 0.00 | 0.00 | 0.00 | 54 | 1009.9 |
| 20260506160512 | 60 | 181 | 2.0 | 9.0 | 0.00 | 0.00 | 0.00 | 54 | 1009.9 |
| 20260506160025 | 60 | 165 | 1.0 | 7.0 | 0.00 | 0.00 | 0.00 | 56 | 1009.9 |
| 20260506155000 | 59 | 163 | 2.0 | 6.0 | 0.00 | 0.00 | 0.00 | 56 | 1010.1 |
| 20260506153456 | 57 | 177 | 1.0 | 5.0 | 0.00 | 0.00 | 0.00 | 55 | 1010.0 |
| 20260506152948 | 57 | 169 | 1.0 | 4.0 | 0.00 | 0.00 | 0.00 | 55 | 1010.0 |
| 20260506152440 | 56 | 168 | 0.0 | 4.0 | 0.00 | 0.00 | 0.00 | 55 | 1010.0 |
| 20260506151939 | 56 | 168 | 0.0 | 4.0 | 0.00 | 0.00 | 0.00 | 56 | 1010.0 |
| 20260506151410 | 56 | 167 | 1.0 | 6.0 | 0.00 | 0.00 | 0.00 | 57 | 1010.1 |
| 20260506150359 | 55 | 141 | 1.0 | 6.0 | 0.00 | 0.00 | 0.00 | 54 | 1010.0 |
| 20260506145858 | 55 | 159 | 1.0 | 5.0 | 0.00 | 0.00 | 0.00 | 56 | 1009.9 |
| 20260506145353 | 55 | 159 | 1.0 | 5.0 | 0.00 | 0.00 | 0.00 | 55 | 1010.0 |
| 20260506144833 | 55 | 152 | 2.0 | 6.0 | 0.00 | 0.00 | 0.00 | 56 | 1010.0 |
| 20260506144317 | 55 | 151 | 2.0 | 6.0 | 0.00 | 0.00 | 0.00 | 57 | 1010.0 |
| 20260506143800 | 55 | 113 | 1.0 | 9.0 | 0.00 | 0.00 | 0.00 | 57 | 1010.0 |
| 20260506143253 | 54 | 117 | 1.0 | 9.0 | 0.00 | 0.00 | 0.00 | 57 | 1010.0 |
| 20260506142740 | 55 | 104 | 1.0 | 6.0 | 0.00 | 0.00 | 0.00 | 56 | 1010.0 |
| 20260506142243 | 55 | 103 | 1.0 | 6.0 | 0.00 | 0.00 | 0.00 | 56 | 1010.0 |
| 20260506141727 | 54 | 101 | 1.0 | 6.0 | 0.00 | 0.00 | 0.00 | 54 | 1010.0 |
| 20260506141224 | 54 | 96 | 1.0 | 5.0 | 0.00 | 0.00 | 0.00 | 56 | 1010.0 |
| 20260506140724 | 54 | 93 | 0.0 | 5.0 | 0.00 | 0.00 | 0.00 | 55 | 1010.0 |
| 20260506135710 | 54 | 93 | 0.0 | 3.0 | 0.00 | 0.00 | 0.00 | 53 | 1009.9 |
| 20260506135211 | 54 | 93 | 0.0 | 1.0 | 0.00 | 0.00 | 0.00 | 53 | 1009.9 |
| 20260506134710 | 54 | 93 | 0.0 | 1.0 | 0.00 | 0.00 | 0.00 | 53 | 1009.8 |
| 20260506134207 | 54 | 93 | 0.0 | 5.0 | 0.00 | 0.00 | 0.00 | 53 | 1009.7 |
| 20260506133649 | 54 | 93 | 1.0 | 5.0 | 0.00 | 0.00 | 0.00 | 53 | 1009.7 |
| 20260506132620 | 54 | 92 | 1.0 | 5.0 | 0.00 | 0.00 | 0.00 | 52 | 1009.5 |
| 20260506132105 | 54 | 90 | 0.0 | 3.0 | 0.00 | 0.00 | 0.00 | 51 | 1009.5 |
| 20260506131556 | 54 | 90 | 0.0 | 1.0 | 0.00 | 0.00 | 0.00 | 51 | 1009.4 |
| 20260506131045 | 54 | 90 | 0.0 | 5.0 | 0.00 | 0.00 | 0.00 | 51 | 1009.5 |
| 20260506130520 | 54 | 90 | 0.0 | 5.0 | 0.00 | 0.00 | 0.00 | 50 | 1009.3 |
| 20260506130012 | 54 | 91 | 0.0 | 4.0 | 0.00 | 0.00 | 0.00 | 49 | 1009.3 |
| 20260506124954 | 54 | 93 | 1.0 | 5.0 | 0.00 | 0.00 | 0.00 | 48 | 1009.2 |
| 20260506124448 | 54 | 93 | 1.0 | 5.0 | 0.00 | 0.00 | 0.00 | 49 | 1009.1 |
| 20260506123943 | 54 | 96 | 0.0 | 4.0 | 0.00 | 0.00 | 0.00 | 48 | 1009.2 |
| 20260506123432 | 54 | 96 | 1.0 | 4.0 | 0.00 | 0.00 | 0.00 | 49 | 1009.2 |
| 20260506122926 | 54 | 98 | 1.0 | 6.0 | 0.00 | 0.00 | 0.00 | 47 | 1009.1 |
| 20260506122421 | 54 | 105 | 0.0 | 6.0 | 0.00 | 0.00 | 0.00 | 47 | 1009.1 |
| 20260506121911 | 54 | 105 | 1.0 | 5.0 | 0.00 | 0.00 | 0.00 | 47 | 1009.2 |
| 20260506121408 | 54 | 104 | 1.0 | 6.0 | 0.00 | 0.00 | 0.00 | 47 | 1009.2 |
| 20260506120904 | 54 | 102 | 1.0 | 6.0 | 0.00 | 0.00 | 0.00 | 47 | 1009.1 |
| 20260506120405 | 54 | 95 | 0.0 | 4.0 | 0.00 | 0.00 | 0.00 | 46 | 1009.2 |
| 20260506115907 | 54 | 95 | 0.0 | 0.0 | 0.00 | 0.00 | 0.00 | 47 | 1009.1 |
| 20260506115357 | 54 | 95 | 0.0 | 5.0 | 0.00 | 0.00 | 0.00 | 46 | 1009.1 |
| 20260506114845 | 54 | 96 | 0.0 | 5.0 | 0.00 | 0.00 | 0.00 | 47 | 1009.1 |
| 20260506114341 | 55 | 95 | 0.0 | 4.0 | 0.00 | 0.00 | 0.00 | 46 | 1009.1 |
| 20260506113334 | 55 | 95 | 0.0 | 4.0 | 0.00 | 0.00 | 0.00 | 46 | 1009.2 |
| 20260506112832 | 55 | 95 | 0.0 | 1.0 | 0.00 | 0.00 | 0.00 | 46 | 1009.2 |
| 20260506112315 | 55 | 95 | 0.0 | 3.0 | 0.00 | 0.00 | 0.00 | 45 | 1009.1 |
| 20260506111808 | 55 | 95 | 0.0 | 4.0 | 0.00 | 0.00 | 0.00 | 46 | 1009.2 |
| 20260506111311 | 55 | 95 | 0.0 | 4.0 | 0.00 | 0.00 | 0.00 | 46 | 1009.2 |
| 20260506110759 | 55 | 94 | 1.0 | 6.0 | 0.00 | 0.00 | 0.00 | 45 | 1009.2 |
| 20260506110249 | 55 | 94 | 1.0 | 6.0 | 0.00 | 0.00 | 0.00 | 44 | 1009.1 |
| 20260506105749 | 55 | 90 | 0.0 | 4.0 | 0.00 | 0.00 | 0.00 | 46 | 1009.1 |
| 20260506105258 | 55 | 90 | 0.0 | 4.0 | 0.00 | 0.00 | 0.00 | 45 | 1009.1 |
| 20260506104735 | 55 | 90 | 0.0 | 4.0 | 0.00 | 0.00 | 0.00 | 45 | 1009.1 |
| 20260506104230 | 55 | 93 | 0.0 | 4.0 | 0.00 | 0.00 | 0.00 | 46 | 1009.0 |
| 20260506103723 | 56 | 93 | 0.0 | 4.0 | 0.00 | 0.00 | 0.00 | 45 | 1009.0 |
| 20260506103218 | 56 | 93 | 1.0 | 5.0 | 0.00 | 0.00 | 0.00 | 45 | 1008.9 |
| 20260506102712 | 56 | 92 | 1.0 | 5.0 | 0.00 | 0.00 | 0.00 | 45 | 1008.9 |
| 20260506102214 | 56 | 98 | 2.0 | 7.0 | 0.00 | 0.00 | 0.00 | 44 | 1008.9 |
| 20260506101712 | 56 | 103 | 1.0 | 7.0 | 0.00 | 0.00 | 0.00 | 45 | 1008.9 |
| 20260506100654 | 56 | 98 | 1.0 | 9.0 | 0.00 | 0.00 | 0.00 | 45 | 1009.0 |
| 20260506100206 | 56 | 92 | 1.0 | 4.0 | 0.00 | 0.00 | 0.00 | 44 | 1008.8 |
| 20260506095635 | 56 | 87 | 1.0 | 4.0 | 0.00 | 0.00 | 0.00 | 44 | 1008.9 |
| 20260506095124 | 56 | 82 | 0.0 | 5.0 | 0.00 | 0.00 | 0.00 | 44 | 1008.9 |
| 20260506094105 | 56 | 83 | 1.0 | 6.0 | 0.00 | 0.00 | 0.00 | 45 | 1008.9 |
| 20260506092503 | 56 | 93 | 0.0 | 6.0 | 0.00 | 0.00 | 0.00 | 45 | 1008.9 |
| 20260506092004 | 56 | 93 | 0.0 | 6.0 | 0.00 | 0.00 | 0.00 | 44 | 1008.9 |
| 20260506091513 | 56 | 71 | 1.0 | 5.0 | 0.00 | 0.00 | 0.00 | 45 | 1008.8 |
| 20260506090944 | 56 | 69 | 1.0 | 5.0 | 0.00 | 0.00 | 0.00 | 46 | 1008.8 |
| 20260506090440 | 56 | 71 | 1.0 | 6.0 | 0.00 | 0.00 | 0.00 | 44 | 1008.7 |
| 20260506085913 | 57 | 74 | 1.0 | 6.0 | 0.00 | 0.00 | 0.00 | 45 | 1008.8 |
| 20260506084413 | 56 | 99 | 1.0 | 5.0 | 0.00 | 0.00 | 0.00 | 44 | 1008.9 |
| 20260506083912 | 57 | 98 | 1.0 | 6.0 | 0.00 | 0.00 | 0.00 | 45 | 1008.9 |
| 20260506083411 | 57 | 101 | 1.0 | 6.0 | 0.00 | 0.00 | 0.00 | 44 | 1009.0 |
| 20260506082917 | 57 | 101 | 1.0 | 6.0 | 0.00 | 0.00 | 0.00 | 43 | 1009.0 |
| 20260506082354 | 57 | 111 | 1.0 | 6.0 | 0.00 | 0.00 | 0.00 | 43 | 1008.9 |
| 20260506081848 | 57 | 101 | 0.0 | 7.0 | 0.00 | 0.00 | 0.00 | 44 | 1008.9 |
| 20260506081335 | 57 | 94 | 0.0 | 7.0 | 0.00 | 0.00 | 0.00 | 43 | 1008.9 |
| 20260506073242 | 57 | 183 | 0.0 | 0.0 | 0.00 | 0.00 | 0.00 | 45 | 1008.5 |
| 20260506072739 | 58 | 183 | 0.0 | 0.0 | 0.00 | 0.00 | 0.00 | 45 | 1008.5 |
| 20260506071702 | 58 | 183 | 0.0 | 0.0 | 0.00 | 0.00 | 0.00 | 45 | 1008.5 |
| 20260506070633 | 58 | 183 | 0.0 | 0.0 | 0.00 | 0.00 | 0.00 | 45 | 1008.5 |
| 20260506070122 | 58 | 183 | 0.0 | 0.0 | 0.00 | 0.00 | 0.00 | 45 | 1008.4 |
| 20260506062450 | 58 | 183 | 0.0 | 0.0 | 0.00 | 0.00 | 0.00 | 46 | 1008.3 |
| 20260506061949 | 58 | 183 | 0.0 | 0.0 | 0.00 | 0.00 | 0.00 | 45 | 1008.1 |
| 20260506061451 | 58 | 183 | 0.0 | 0.0 | 0.00 | 0.00 | 0.00 | 45 | 1008.1 |
| 20260506060944 | 58 | 183 | 0.0 | 0.0 | 0.00 | 0.00 | 0.00 | 46 | 1008.2 |
| 20260506060444 | 58 | 183 | 0.0 | 0.0 | 0.00 | 0.00 | 0.00 | 44 | 1008.0 |
| 20260506051300 | 58 | 183 | 0.0 | 0.0 | 0.00 | 0.00 | 0.00 | 46 | 1008.0 |
| 20260506050733 | 58 | 183 | 0.0 | 0.0 | 0.00 | 0.00 | 0.00 | 46 | 1008.0 |
| 20260506050229 | 58 | 183 | 0.0 | 0.0 | 0.00 | 0.00 | 0.00 | 46 | 1008.0 |
| 20260506044711 | 57 | 183 | 0.0 | 0.0 | 0.00 | 0.00 | 0.00 | 47 | 1007.9 |
| 20260506044205 | 57 | 183 | 0.0 | 0.0 | 0.00 | 0.00 | 0.00 | 47 | 1007.8 |
| 20260506043707 | 57 | 183 | 0.0 | 0.0 | 0.00 | 0.00 | 0.00 | 46 | 1007.9 |
| 20260506043141 | 57 | 183 | 0.0 | 0.0 | 0.00 | 0.00 | 0.00 | 47 | 1007.7 |
| 20260506042623 | 57 | 183 | 0.0 | 0.0 | 0.00 | 0.00 | 0.00 | 47 | 1007.8 |
| 20260506041606 | 57 | 183 | 0.0 | 0.0 | 0.00 | 0.00 | 0.00 | 47 | 1007.7 |
| 20260506041103 | 57 | 183 | 0.0 | 0.0 | 0.00 | 0.00 | 0.00 | 47 | 1007.7 |
| 20260506040559 | 57 | 183 | 0.0 | 0.0 | 0.00 | 0.00 | 0.00 | 47 | 1007.6 |
| 20260506040055 | 57 | 183 | 0.0 | 0.0 | 0.00 | 0.00 | 0.00 | 47 | 1007.6 |
| 20260506035508 | 57 | 183 | 0.0 | 0.0 | 0.00 | 0.00 | 0.00 | 47 | 1007.7 |
| 20260506034439 | 57 | 183 | 0.0 | 0.0 | 0.00 | 0.00 | 0.00 | 48 | 1007.7 |
| 20260506033407 | 57 | 183 | 0.0 | 0.0 | 0.00 | 0.00 | 0.00 | 49 | 1007.5 |
| 20260506032907 | 57 | 183 | 0.0 | 0.0 | 0.00 | 0.00 | 0.00 | 49 | 1007.4 |
| 20260506031333 | 57 | 183 | 0.0 | 0.0 | 0.00 | 0.00 | 0.00 | 49 | 1007.4 |
| 20260506030822 | 58 | 183 | 0.0 | 0.0 | 0.00 | 0.00 | 0.00 | 50 | 1007.1 |
| 20260506030249 | 58 | 183 | 0.0 | 0.0 | 0.00 | 0.00 | 0.00 | 50 | 1007.1 |
| 20260506025741 | 58 | 183 | 0.0 | 0.0 | 0.00 | 0.00 | 0.00 | 50 | 1007.2 |
| 20260506024727 | 59 | 183 | 0.0 | 0.0 | 0.00 | 0.00 | 0.00 | 50 | 1007.3 |
| 20260506023714 | 59 | 183 | 0.0 | 0.0 | 0.00 | 0.00 | 0.00 | 50 | 1007.1 |
| 20260506023206 | 60 | 183 | 0.0 | 0.0 | 0.00 | 0.00 | 0.00 | 51 | 1007.0 |
| 20260506022700 | 60 | 183 | 0.0 | 0.0 | 0.00 | 0.00 | 0.00 | 50 | 1007.0 |
| 20260506022155 | 60 | 183 | 0.0 | 0.0 | 0.00 | 0.00 | 0.00 | 50 | 1006.8 |
| 20260506021639 | 61 | 183 | 0.0 | 0.0 | 0.00 | 0.00 | 0.00 | 50 | 1006.8 |
| 20260506021112 | 61 | 183 | 0.0 | 0.0 | 0.00 | 0.00 | 0.00 | 49 | 1006.8 |
| 20260506020607 | 62 | 183 | 0.0 | 0.0 | 0.00 | 0.00 | 0.00 | 48 | 1006.8 |
| 20260506020113 | 63 | 183 | 0.0 | 0.0 | 0.00 | 0.00 | 0.00 | 45 | 1006.7 |
| 20260506015544 | 64 | 184 | 0.0 | 0.0 | 0.00 | 0.00 | 0.00 | 44 | 1006.8 |
| 20260506014515 | 65 | 184 | 1.0 | 7.0 | 0.00 | 0.00 | 0.00 | 41 | 1006.9 |
| 20260506014005 | 65 | 184 | 0.0 | 5.0 | 0.00 | 0.00 | 0.00 | 38 | 1007.0 |
| 20260506013458 | 66 | 185 | 1.0 | 4.0 | 0.00 | 0.00 | 0.00 | 38 | 1006.9 |
| 20260506012951 | 66 | 185 | 1.0 | 7.0 | 0.00 | 0.00 | 0.00 | 34 | 1007.0 |
| 20260506012437 | 66 | 186 | 1.0 | 7.0 | 0.00 | 0.00 | 0.00 | 36 | 1006.9 |
| 20260506011931 | 67 | 155 | 2.0 | 5.0 | 0.00 | 0.00 | 0.00 | 38 | 1006.8 |
| 20260506011420 | 67 | 152 | 1.0 | 5.0 | 0.00 | 0.00 | 0.00 | 37 | 1006.8 |
| 20260506010908 | 67 | 163 | 1.0 | 5.0 | 0.00 | 0.00 | 0.00 | 35 | 1006.8 |
| 20260506010357 | 68 | 160 | 2.0 | 6.0 | 0.00 | 0.00 | 0.00 | 37 | 1006.7 |
| 20260506005841 | 67 | 184 | 2.0 | 7.0 | 0.00 | 0.00 | 0.00 | 40 | 1006.6 |
| 20260506005342 | 68 | 145 | 2.0 | 10.0 | 0.00 | 0.00 | 0.00 | 36 | 1006.7 |
| 20260506004315 | 67 | 101 | 2.0 | 10.0 | 0.00 | 0.00 | 0.00 | 37 | 1006.7 |
| 20260506003808 | 68 | 158 | 2.0 | 7.0 | 0.00 | 0.00 | 0.00 | 37 | 1006.7 |
| 20260506002806 | 68 | 173 | 3.0 | 6.0 | 0.00 | 0.00 | 0.00 | 37 | 1006.5 |
| 20260506002306 | 69 | 167 | 3.0 | 6.0 | 0.00 | 0.00 | 0.00 | 39 | 1006.4 |
| 20260506001803 | 68 | 187 | 2.0 | 7.0 | 0.00 | 0.00 | 0.00 | 37 | 1006.6 |
| 20260506001305 | 68 | 174 | 2.0 | 7.0 | 0.00 | 0.00 | 0.00 | 37 | 1006.4 |
| 20260506000805 | 68 | 203 | 3.0 | 10.0 | 0.00 | 0.00 | 0.00 | 38 | 1006.5 |
| 20260506000250 | 68 | 188 | 4.0 | 10.0 | 0.00 | 0.00 | 0.00 | 37 | 1006.5 |
| 20260505235747 | 68 | 202 | 5.0 | 10.0 | 0.00 | 0.00 | 0.00 | 39 | 1006.6 |